Regional Weather Roundup
Issued by NWS

Home | Current Version | Previous Version | Text Only | Print | Product List | Glossary Off
Versions: 1 2 3 4 5 6 7 8 9 10 11 12 13 14 15 16 17 18 19 20 21 22 23 24 25 26 27 28 29 30 31 32 33 34 35 36 37 38 39 40 41 42 43 44 45 46 47 48 49 50

000
ASUS43 KOAX 240802
RWRNE

WEATHER ROUNDUP FOR NEBRASKA
NATIONAL WEATHER SERVICE OMAHA NE
300 AM CDT THU APR 24 2014

NOTES: SATELLITE DATA IS BEING USED TO AUGMENT CLOUD COVER ABOVE
       12000 FEET.
       "FAIR" INDICATES FEW OR NO CLOUDS BELOW 12,000 FEET WITH NO
       SIGNIFICANT WEATHER AND/OR OBSTRUCTIONS TO VISIBILITY.

  * THESE STATIONS DO NOT REPORT WEATHER SUCH AS RAIN...SNOW OR FOG.

NEZ001>004-019>022-054>056-240900-
NEBRASKA PANHANDLE

CITY           SKY/WX    TMP DP  RH WIND       PRES   REMARKS
SCOTTSBLUFF    CLOUDY    43  34  70 W9        29.90R
ALLIANCE       MOCLDY    43  36  76 NW6       29.88R
CHADRON        CLOUDY    40  33  76 CALM      29.88R
KIMBALL        CLOUDY    42  31  63 NW10      29.90S
SIDNEY         PTCLDY    43  29  57 NW10      29.89R
$$

NEZ057>060-069>072-079>082-240900-
SOUTHWEST NEBRASKA

CITY           SKY/WX    TMP DP  RH WIND       PRES   REMARKS
NORTH PLATTE   CLOUDY    53  36  52 N20G28    29.78S
IMPERIAL       CLOUDY    51  31  46 NW7       29.80R
LEXINGTON      CLOUDY    55  42  63 N9        29.75F
MCCOOK         CLOUDY    54  34  46 N10       29.75F
OGALLALA       CLOUDY    51  36  56 N12       29.83S
$$

NEZ005>010-023>029-035>040-094-240900-
NORTH CENTRAL NEBRASKA

CITY           SKY/WX    TMP DP  RH WIND       PRES   REMARKS
VALENTINE      CLOUDY    50  35  56 NW12      29.78F
AINSWORTH      CLOUDY    52  36  53 NW13      29.77R
BROKEN BOW     CLOUDY    53  38  56 N16G25    29.74R
O`NEILL        LGT RAIN  54  36  51 NW15G26   29.71R
ORD            LGT RAIN  50  43  77 NW15      29.72R
THEDFORD       CLOUDY    52  37  54 NW14      29.79F
$$

NEZ041-046>049-061>064-073>077-083>087-240900-
SOUTH CENTRAL NEBRASKA

CITY           SKY/WX    TMP DP  RH WIND       PRES   REMARKS
GRAND ISLAND   RAIN      53  49  86 N21G29    29.69R FOG
AURORA         LGT RAIN  55  55 100 CALM      29.66R
HASTINGS       LGT RAIN  53  48  83 NW29G38   29.67F
HEBRON         RAIN      55  53  95 SE3       29.66F
HOLDREGE       CLOUDY    52  45  76 NW10G18   29.73F
KEARNEY *      CLOUDY    52  46  82 N13       29.72F
YORK           RAIN      52  52 100 SE7       29.65F
$$

NEZ011>018-030>034-042>045-240900-
NORTHEAST NEBRASKA

CITY           SKY/WX    TMP DP  RH WIND       PRES   REMARKS
NORFOLK        HVY RAIN  55  53  93 SW8       29.67R FOG
ALBION         RAIN      50  49  93 N14       29.66F
BLAIR          MOCLDY    48  44  84 NE12      29.60F
COLUMBUS *     CLOUDY    52  46  82 CALM      29.67R
FREMONT        RAIN      50  47  88 E3        29.62R
TEKAMAH        CLOUDY    51  44  77 E7        29.64S
$$

NEZ050>053-065>068-078-088>093-240900-
SOUTHEAST NEBRASKA

CITY           SKY/WX    TMP DP  RH WIND       PRES   REMARKS
LINCOLN        LGT RAIN  52  48  86 SW3       29.69R FOG
OMAHA EPPLEY   CLOUDY    48  44  86 N5        29.61F
BEATRICE       RAIN      52  49  89 N10       29.67R
FALLS CITY     CLOUDY    67  48  50 S3        29.60R
NEBRASKA CITY  MOCLDY    57  42  56 E5        29.59S
PLATTSMOUTH    MOCLDY    51  45  79 NE6       29.59F
$$

NEZ044-045-051>053-067-240900-
OMAHA AREA

CITY           SKY/WX    TMP DP  RH WIND       PRES   REMARKS
OMAHA EPPLEY   CLOUDY    48  44  86 N5        29.61F
BLAIR          MOCLDY    48  44  84 NE12      29.60F
FREMONT        RAIN      50  47  88 E3        29.62R
MILLARD        MOCLDY    50  44  79 CALM      29.61F
OFFUTT AFB     MOCLDY    49  49  97 NE8       29.59F
PLATTSMOUTH    MOCLDY    51  45  79 NE6       29.59F
WAHOO          LGT RAIN  50  46  87 SE5       29.63R
$$



USA.gov is the U.S. government's official web portal to all federal, state and local government web resources and services.